| time (UTC) | temp C | wind direction | speed KPH | gust KPH | rain 1hr cm | rain 24hr cm | rain mn cm | humidity % | barometer mb |
| 20260506104004 | 14 | 334 | 9.7 | 17.7 | 0.00 | 0.00 | 0.00 | 36 | 1010.0 |
| 20260506103504 | 14 | 12 | 6.4 | 16.1 | 0.00 | 0.00 | 0.00 | 36 | 1010.0 |
| 20260506103004 | 14 | 86 | 4.8 | 12.9 | 0.00 | 0.00 | 0.00 | 35 | 1010.0 |
| 20260506102505 | 14 | 80 | 8.0 | 14.5 | 0.00 | 0.00 | 0.00 | 37 | 1010.0 |
| 20260506102005 | 14 | 89 | 9.7 | 14.5 | 0.00 | 0.00 | 0.00 | 36 | 1010.0 |
| 20260506101505 | 14 | 87 | 8.0 | 16.1 | 0.00 | 0.00 | 0.00 | 39 | 1010.0 |
| 20260506101004 | 14 | 56 | 9.7 | 19.3 | 0.00 | 0.00 | 0.00 | 37 | 1010.0 |
| 20260506100505 | 14 | 83 | 11.3 | 19.3 | 0.00 | 0.00 | 0.00 | 36 | 1010.0 |
| 20260506100005 | 14 | 92 | 6.4 | 16.1 | 0.00 | 0.00 | 0.00 | 38 | 1010.0 |
| 20260506095505 | 14 | 63 | 4.8 | 12.9 | 0.00 | 0.00 | 0.00 | 39 | 1010.0 |
| 20260506095005 | 14 | 75 | 11.3 | 17.7 | 0.00 | 0.00 | 0.00 | 37 | 1010.0 |
| 20260506094505 | 14 | 92 | 11.3 | 17.7 | 0.00 | 0.00 | 0.00 | 37 | 1010.0 |
| 20260506093504 | 13 | 26 | 8.0 | 11.3 | 0.00 | 0.00 | 0.00 | 36 | 1010.0 |
| 20260506093005 | 14 | 50 | 8.0 | 12.9 | 0.00 | 0.00 | 0.00 | 37 | 1010.0 |
| 20260506092504 | 14 | 90 | 9.7 | 19.3 | 0.00 | 0.00 | 0.00 | 38 | 1010.0 |
| 20260506092005 | 13 | 82 | 11.3 | 19.3 | 0.00 | 0.00 | 0.00 | 39 | 1010.0 |
| 20260506091504 | 13 | 52 | 9.7 | 17.7 | 0.00 | 0.00 | 0.00 | 38 | 1010.0 |
| 20260506091006 | 13 | 38 | 9.7 | 14.5 | 0.00 | 0.00 | 0.00 | 38 | 1010.0 |
| 20260506090504 | 13 | 62 | 9.7 | 14.5 | 0.00 | 0.00 | 0.00 | 37 | 1010.0 |
| 20260506090006 | 13 | 89 | 11.3 | 19.3 | 0.00 | 0.00 | 0.00 | 40 | 1010.0 |
| 20260506085004 | 13 | 92 | 12.9 | 20.9 | 0.00 | 0.00 | 0.00 | 38 | 1009.0 |
| 20260506084505 | 13 | 89 | 12.9 | 20.9 | 0.00 | 0.00 | 0.00 | 40 | 1009.0 |
| 20260506084005 | 13 | 57 | 11.3 | 19.3 | 0.00 | 0.00 | 0.00 | 40 | 1009.0 |
| 20260506083505 | 13 | 55 | 11.3 | 16.1 | 0.00 | 0.00 | 0.00 | 39 | 1009.0 |
| 20260506082505 | 13 | 76 | 11.3 | 16.1 | 0.00 | 0.00 | 0.00 | 41 | 1009.0 |
| 20260506082006 | 13 | 71 | 11.3 | 16.1 | 0.00 | 0.00 | 0.00 | 41 | 1009.0 |
| 20260506081504 | 13 | 63 | 11.3 | 17.7 | 0.00 | 0.00 | 0.00 | 42 | 1009.0 |
| 20260506080504 | 13 | 76 | 11.3 | 14.5 | 0.00 | 0.00 | 0.00 | 43 | 1010.0 |
| 20260506073504 | 12 | 91 | 12.9 | 20.9 | 0.00 | 0.00 | 0.00 | 44 | 1010.0 |
| 20260506073005 | 12 | 77 | 12.9 | 22.5 | 0.00 | 0.00 | 0.00 | 44 | 1010.0 |
| 20260506072504 | 11 | 69 | 12.9 | 22.5 | 0.00 | 0.00 | 0.00 | 44 | 1010.0 |
| 20260506072006 | 11 | 72 | 12.9 | 19.3 | 0.00 | 0.00 | 0.00 | 44 | 1010.0 |
| 20260506071504 | 11 | 79 | 14.5 | 19.3 | 0.00 | 0.00 | 0.00 | 43 | 1010.0 |
| 20260506071005 | 11 | 82 | 14.5 | 17.7 | 0.00 | 0.00 | 0.00 | 45 | 1010.0 |
| 20260506070504 | 11 | 84 | 12.9 | 17.7 | 0.00 | 0.00 | 0.00 | 46 | 1010.0 |
| 20260506062505 | 9 | 72 | 11.3 | 17.7 | 0.00 | 0.00 | 0.00 | 49 | 1010.0 |
| 20260506062004 | 8 | 66 | 6.4 | 16.1 | 0.00 | 0.00 | 0.00 | 48 | 1010.0 |
| 20260506061504 | 8 | 67 | 3.2 | 8.0 | 0.00 | 0.00 | 0.00 | 49 | 1010.0 |
| 20260506061005 | 8 | 66 | 1.6 | 6.4 | 0.00 | 0.00 | 0.00 | 51 | 1010.0 |
| 20260506060505 | 7 | 63 | 4.8 | 9.7 | 0.00 | 0.00 | 0.00 | 52 | 1010.0 |
| 20260506051005 | 3 | 64 | 1.6 | 8.0 | 0.00 | 0.00 | 0.00 | 61 | 1010.0 |
| 20260506050504 | 3 | 68 | 1.6 | 8.0 | 0.00 | 0.00 | 0.00 | 61 | 1010.0 |
| 20260506045005 | 3 | 76 | 3.2 | 6.4 | 0.00 | 0.00 | 0.00 | 64 | 1010.0 |
| 20260506044504 | 3 | 76 | 4.8 | 8.0 | 0.00 | 0.00 | 0.00 | 65 | 1010.0 |
| 20260506044005 | 2 | 75 | 3.2 | 8.0 | 0.00 | 0.00 | 0.00 | 65 | 1010.0 |
| 20260506043505 | 2 | 0 | 0.0 | 0.0 | 0.00 | 0.00 | 0.00 | 65 | 1010.0 |
| 20260506043005 | 2 | 0 | 0.0 | 0.0 | 0.00 | 0.00 | 0.00 | 65 | 1010.0 |
| 20260506042504 | 2 | 0 | 0.0 | 0.0 | 0.00 | 0.00 | 0.00 | 65 | 1010.0 |
| 20260506042005 | 2 | 79 | 1.6 | 11.3 | 0.00 | 0.00 | 0.00 | 65 | 1010.0 |
| 20260506040006 | 1 | 85 | 6.4 | 9.7 | 0.00 | 0.00 | 0.00 | 65 | 1010.0 |
| 20260506035504 | 1 | 84 | 3.2 | 8.0 | 0.00 | 0.00 | 0.00 | 65 | 1010.0 |
| 20260506035005 | 1 | 83 | 4.8 | 8.0 | 0.00 | 0.00 | 0.00 | 66 | 1010.0 |
| 20260506034504 | 1 | 83 | 8.0 | 12.9 | 0.00 | 0.00 | 0.00 | 66 | 1010.0 |
| 20260506034004 | 1 | 79 | 8.0 | 12.9 | 0.00 | 0.00 | 0.00 | 66 | 1010.0 |
| 20260506033505 | 1 | 76 | 6.4 | 9.7 | 0.00 | 0.00 | 0.00 | 66 | 1010.0 |
| 20260506033005 | 1 | 77 | 6.4 | 9.7 | 0.00 | 0.00 | 0.00 | 67 | 1010.0 |
| 20260506032505 | 1 | 79 | 6.4 | 9.7 | 0.00 | 0.00 | 0.00 | 67 | 1011.0 |
| 20260506032004 | 1 | 86 | 6.4 | 8.0 | 0.00 | 0.00 | 0.00 | 67 | 1011.0 |
| 20260506031004 | 1 | 78 | 6.4 | 12.9 | 0.00 | 0.00 | 0.00 | 67 | 1011.0 |
| 20260506030505 | 1 | 76 | 6.4 | 11.3 | 0.00 | 0.00 | 0.00 | 67 | 1011.0 |
| 20260506030005 | 1 | 83 | 6.4 | 8.0 | 0.00 | 0.00 | 0.00 | 67 | 1011.0 |
| 20260506025505 | 1 | 82 | 4.8 | 8.0 | 0.00 | 0.00 | 0.00 | 68 | 1011.0 |
| 20260506025004 | 1 | 80 | 3.2 | 8.0 | 0.00 | 0.00 | 0.00 | 68 | 1011.0 |
| 20260506024504 | 1 | 104 | 0.0 | 6.4 | 0.00 | 0.00 | 0.00 | 67 | 1011.0 |
| 20260506024005 | 1 | 0 | 0.0 | 0.0 | 0.00 | 0.00 | 0.00 | 68 | 1011.0 |
| 20260506023005 | 1 | 100 | 4.8 | 8.0 | 0.00 | 0.00 | 0.00 | 67 | 1011.0 |
| 20260506022504 | 1 | 103 | 8.0 | 11.3 | 0.00 | 0.00 | 0.00 | 68 | 1011.0 |
| 20260506022006 | 1 | 106 | 8.0 | 11.3 | 0.00 | 0.00 | 0.00 | 68 | 1011.0 |
| 20260506021504 | 1 | 100 | 8.0 | 12.9 | 0.00 | 0.00 | 0.00 | 68 | 1011.0 |
| 20260506020504 | 1 | 107 | 9.7 | 11.3 | 0.00 | 0.00 | 0.00 | 69 | 1011.0 |
| 20260506020005 | 1 | 104 | 6.4 | 11.3 | 0.00 | 0.00 | 0.00 | 68 | 1011.0 |
| 20260506015505 | 1 | 90 | 1.6 | 8.0 | 0.00 | 0.00 | 0.00 | 68 | 1011.0 |
| 20260506015005 | 1 | 0 | 0.0 | 0.0 | 0.00 | 0.00 | 0.00 | 67 | 1011.0 |
| 20260506013505 | 1 | 0 | 0.0 | 0.0 | 0.00 | 0.00 | 0.00 | 67 | 1010.0 |
| 20260506013004 | 1 | 0 | 0.0 | 0.0 | 0.00 | 0.00 | 0.00 | 67 | 1010.0 |
| 20260506012004 | 1 | 0 | 0.0 | 0.0 | 0.00 | 0.00 | 0.00 | 66 | 1010.0 |
| 20260506011505 | 1 | 0 | 0.0 | 0.0 | 0.00 | 0.00 | 0.00 | 66 | 1010.0 |
| 20260506011004 | 1 | 0 | 0.0 | 0.0 | 0.00 | 0.00 | 0.00 | 65 | 1010.0 |
| 20260506010504 | 1 | 0 | 0.0 | 0.0 | 0.00 | 0.00 | 0.00 | 64 | 1010.0 |
| 20260506010005 | 1 | 105 | 0.0 | 6.4 | 0.00 | 0.00 | 0.00 | 64 | 1010.0 |
| 20260506005504 | 1 | 113 | 1.6 | 8.0 | 0.00 | 0.00 | 0.00 | 64 | 1010.0 |
| 20260506005005 | 1 | 111 | 6.4 | 9.7 | 0.00 | 0.00 | 0.00 | 64 | 1010.0 |
| 20260506004504 | 1 | 109 | 8.0 | 9.7 | 0.00 | 0.00 | 0.00 | 64 | 1010.0 |
| 20260506004004 | 1 | 106 | 6.4 | 8.0 | 0.00 | 0.00 | 0.00 | 63 | 1010.0 |
| 20260506003504 | 1 | 101 | 6.4 | 8.0 | 0.00 | 0.00 | 0.00 | 63 | 1010.0 |
| 20260506003005 | 1 | 102 | 3.2 | 8.0 | 0.00 | 0.00 | 0.00 | 64 | 1010.0 |
| 20260506002504 | 1 | 112 | 1.6 | 8.0 | 0.00 | 0.00 | 0.00 | 62 | 1010.0 |
| 20260506002005 | 2 | 112 | 0.0 | 6.4 | 0.00 | 0.00 | 0.00 | 62 | 1010.0 |
| 20260506001504 | 2 | 105 | 1.6 | 8.0 | 0.00 | 0.00 | 0.00 | 62 | 1010.0 |
| 20260506001005 | 2 | 98 | 4.8 | 8.0 | 0.00 | 0.00 | 0.00 | 62 | 1010.0 |
| 20260506000504 | 2 | 94 | 1.6 | 8.0 | 0.00 | 0.00 | 0.00 | 62 | 1010.0 |
| 20260506000006 | 2 | 92 | 1.6 | 4.8 | 0.00 | 0.00 | 0.00 | 61 | 1010.0 |
| 20260505235004 | 2 | 111 | 0.0 | 6.4 | 0.00 | 0.00 | 0.00 | 61 | 1010.0 |
| 20260505234505 | 2 | 111 | 0.0 | 6.4 | 0.00 | 0.00 | 0.00 | 60 | 1010.0 |
| 20260505234005 | 2 | 0 | 0.0 | 0.0 | 0.00 | 0.00 | 0.00 | 60 | 1010.0 |
| 20260505233005 | 2 | 0 | 0.0 | 0.0 | 0.00 | 0.00 | 0.00 | 61 | 1010.0 |
| 20260505232004 | 2 | 0 | 0.0 | 0.0 | 0.00 | 0.00 | 0.00 | 61 | 1010.0 |
| 20260505231505 | 2 | 0 | 0.0 | 0.0 | 0.00 | 0.00 | 0.00 | 60 | 1010.0 |
| 20260505230504 | 2 | 0 | 0.0 | 0.0 | 0.00 | 0.00 | 0.00 | 59 | 1010.0 |
| 20260505230006 | 2 | 0 | 0.0 | 0.0 | 0.00 | 0.00 | 0.00 | 58 | 1010.0 |
| 20260505225504 | 2 | 0 | 0.0 | 0.0 | 0.00 | 0.00 | 0.00 | 58 | 1011.0 |
| 20260505224505 | 3 | 0 | 0.0 | 0.0 | 0.00 | 0.00 | 0.00 | 57 | 1011.0 |
| 20260505224004 | 3 | 0 | 0.0 | 0.0 | 0.00 | 0.00 | 0.00 | 57 | 1010.0 |
| 20260505223504 | 3 | 0 | 0.0 | 0.0 | 0.00 | 0.00 | 0.00 | 57 | 1010.0 |
| 20260505223005 | 3 | 0 | 0.0 | 0.0 | 0.00 | 0.00 | 0.00 | 57 | 1010.0 |
| 20260505222505 | 3 | 0 | 0.0 | 0.0 | 0.00 | 0.00 | 0.00 | 57 | 1010.0 |
| 20260505222005 | 3 | 158 | 0.0 | 4.8 | 0.00 | 0.00 | 0.00 | 56 | 1010.0 |
| 20260505220005 | 3 | 0 | 0.0 | 0.0 | 0.00 | 0.00 | 0.00 | 55 | 1010.0 |
| 20260505215505 | 3 | 0 | 0.0 | 0.0 | 0.00 | 0.00 | 0.00 | 54 | 1011.0 |
| 20260505215005 | 3 | 0 | 0.0 | 0.0 | 0.00 | 0.00 | 0.00 | 54 | 1011.0 |
| 20260505214504 | 4 | 152 | 0.0 | 4.8 | 0.00 | 0.00 | 0.00 | 53 | 1011.0 |
| 20260505214005 | 4 | 152 | 0.0 | 4.8 | 0.00 | 0.00 | 0.00 | 52 | 1010.0 |
| 20260505213504 | 4 | 337 | 0.0 | 1.6 | 0.00 | 0.00 | 0.00 | 51 | 1010.0 |
| 20260505212504 | 5 | 337 | 0.0 | 1.6 | 0.00 | 0.00 | 0.00 | 49 | 1010.0 |
| 20260505212004 | 5 | 280 | 0.0 | 4.8 | 0.00 | 0.00 | 0.00 | 49 | 1010.0 |
| 20260505211504 | 5 | 280 | 0.0 | 4.8 | 0.00 | 0.00 | 0.00 | 49 | 1010.0 |
| 20260505211005 | 5 | 337 | 0.0 | 3.2 | 0.00 | 0.00 | 0.00 | 49 | 1010.0 |
| 20260505210505 | 5 | 283 | 0.0 | 4.8 | 0.00 | 0.00 | 0.00 | 49 | 1010.0 |
| 20260505210004 | 5 | 271 | 0.0 | 4.8 | 0.00 | 0.00 | 0.00 | 48 | 1010.0 |
| 20260505205505 | 5 | 0 | 0.0 | 0.0 | 0.00 | 0.00 | 0.00 | 49 | 1010.0 |
| 20260505205005 | 5 | 0 | 0.0 | 0.0 | 0.00 | 0.00 | 0.00 | 49 | 1010.0 |
| 20260505204505 | 5 | 331 | 0.0 | 8.0 | 0.00 | 0.00 | 0.00 | 49 | 1010.0 |
| 20260505204004 | 5 | 325 | 0.0 | 8.0 | 0.00 | 0.00 | 0.00 | 49 | 1010.0 |
| 20260505203505 | 5 | 284 | 0.0 | 3.2 | 0.00 | 0.00 | 0.00 | 49 | 1010.0 |
| 20260505203005 | 5 | 280 | 0.0 | 3.2 | 0.00 | 0.00 | 0.00 | 49 | 1010.0 |
| 20260505202005 | 6 | 305 | 0.0 | 3.2 | 0.00 | 0.00 | 0.00 | 49 | 1010.0 |
| 20260505201505 | 6 | 232 | 0.0 | 3.2 | 0.00 | 0.00 | 0.00 | 49 | 1010.0 |
| 20260505201004 | 6 | 225 | 0.0 | 3.2 | 0.00 | 0.00 | 0.00 | 48 | 1010.0 |
| 20260505200505 | 6 | 0 | 0.0 | 0.0 | 0.00 | 0.00 | 0.00 | 48 | 1010.0 |
| 20260505200004 | 6 | 0 | 0.0 | 0.0 | 0.00 | 0.00 | 0.00 | 48 | 1010.0 |
| 20260505195006 | 6 | 248 | 0.0 | 1.6 | 0.00 | 0.00 | 0.00 | 47 | 1010.0 |
| 20260505194504 | 6 | 0 | 0.0 | 0.0 | 0.00 | 0.00 | 0.00 | 47 | 1010.0 |
| 20260505194005 | 6 | 0 | 0.0 | 0.0 | 0.00 | 0.00 | 0.00 | 46 | 1010.0 |
| 20260505193504 | 7 | 0 | 0.0 | 0.0 | 0.00 | 0.00 | 0.00 | 46 | 1010.0 |
| 20260505193006 | 7 | 0 | 0.0 | 0.0 | 0.00 | 0.00 | 0.00 | 46 | 1010.0 |
| 20260505192505 | 7 | 0 | 0.0 | 0.0 | 0.00 | 0.00 | 0.00 | 46 | 1010.0 |
| 20260505192004 | 7 | 0 | 0.0 | 0.0 | 0.00 | 0.00 | 0.00 | 45 | 1010.0 |
| 20260505191005 | 7 | 292 | 0.0 | 8.0 | 0.00 | 0.00 | 0.00 | 44 | 1009.0 |
| 20260505190504 | 8 | 294 | 1.6 | 8.0 | 0.00 | 0.00 | 0.00 | 44 | 1009.0 |
| 20260505190007 | 8 | 304 | 6.4 | 9.7 | 0.00 | 0.00 | 0.00 | 43 | 1009.0 |
| 20260505185505 | 8 | 311 | 3.2 | 9.7 | 0.00 | 0.00 | 0.00 | 43 | 1010.0 |
| 20260505185004 | 8 | 225 | 0.0 | 3.2 | 0.00 | 0.00 | 0.00 | 43 | 1010.0 |
| 20260505184504 | 8 | 255 | 0.0 | 3.2 | 0.00 | 0.00 | 0.00 | 43 | 1010.0 |
| 20260505184006 | 8 | 315 | 0.0 | 3.2 | 0.00 | 0.00 | 0.00 | 43 | 1010.0 |
| 20260505183505 | 8 | 305 | 0.0 | 3.2 | 0.00 | 0.00 | 0.00 | 43 | 1010.0 |
| 20260505183005 | 8 | 314 | 0.0 | 1.6 | 0.00 | 0.00 | 0.00 | 43 | 1010.0 |
| 20260505182505 | 8 | 0 | 0.0 | 0.0 | 0.00 | 0.00 | 0.00 | 43 | 1010.0 |
| 20260505182005 | 8 | 0 | 0.0 | 0.0 | 0.00 | 0.00 | 0.00 | 43 | 1010.0 |
| 20260505181504 | 8 | 291 | 0.0 | 4.8 | 0.00 | 0.00 | 0.00 | 42 | 1010.0 |
| 20260505181005 | 9 | 277 | 0.0 | 4.8 | 0.00 | 0.00 | 0.00 | 41 | 1009.0 |
| 20260505180006 | 9 | 271 | 1.6 | 8.0 | 0.00 | 0.00 | 0.00 | 40 | 1009.0 |
| 20260505175504 | 10 | 300 | 3.2 | 16.1 | 0.00 | 0.00 | 0.00 | 40 | 1010.0 |
| 20260505175005 | 10 | 309 | 4.8 | 16.1 | 0.00 | 0.00 | 0.00 | 39 | 1010.0 |
| 20260505174504 | 10 | 307 | 4.8 | 14.5 | 0.00 | 0.00 | 0.00 | 39 | 1010.0 |
| 20260505174004 | 10 | 287 | 3.2 | 11.3 | 0.00 | 0.00 | 0.00 | 39 | 1009.0 |
| 20260505173505 | 10 | 281 | 1.6 | 11.3 | 0.00 | 0.00 | 0.00 | 39 | 1009.0 |
| 20260505173005 | 10 | 272 | 3.2 | 8.0 | 0.00 | 0.00 | 0.00 | 38 | 1009.0 |
| 20260505172504 | 10 | 272 | 4.8 | 8.0 | 0.00 | 0.00 | 0.00 | 38 | 1009.0 |
| 20260505172004 | 11 | 294 | 4.8 | 8.0 | 0.00 | 0.00 | 0.00 | 38 | 1009.0 |
| 20260505171505 | 11 | 307 | 4.8 | 16.1 | 0.00 | 0.00 | 0.00 | 37 | 1009.0 |
| 20260505171006 | 11 | 305 | 8.0 | 16.1 | 0.00 | 0.00 | 0.00 | 37 | 1010.0 |
| 20260505170504 | 11 | 310 | 9.7 | 20.9 | 0.00 | 0.00 | 0.00 | 36 | 1010.0 |
| 20260505170005 | 11 | 306 | 9.7 | 20.9 | 0.00 | 0.00 | 0.00 | 36 | 1010.0 |
| 20260505165504 | 11 | 288 | 8.0 | 16.1 | 0.00 | 0.00 | 0.00 | 37 | 1011.0 |
| 20260505164504 | 11 | 313 | 14.5 | 24.1 | 0.00 | 0.00 | 0.00 | 36 | 1011.0 |
| 20260505164005 | 11 | 311 | 16.1 | 24.1 | 0.00 | 0.00 | 0.00 | 34 | 1010.0 |
| 20260505163005 | 11 | 317 | 12.9 | 19.3 | 0.00 | 0.00 | 0.00 | 34 | 1010.0 |
| 20260505162504 | 11 | 312 | 11.3 | 19.3 | 0.00 | 0.00 | 0.00 | 34 | 1010.0 |
| 20260505162005 | 11 | 308 | 12.9 | 22.5 | 0.00 | 0.00 | 0.00 | 36 | 1010.0 |
| 20260505161005 | 11 | 317 | 16.1 | 24.1 | 0.00 | 0.00 | 0.00 | 32 | 1010.0 |
| 20260505160505 | 11 | 314 | 17.7 | 24.1 | 0.00 | 0.00 | 0.00 | 34 | 1010.0 |
| 20260505153005 | 11 | 309 | 12.9 | 24.1 | 0.00 | 0.00 | 0.00 | 36 | 1010.0 |
| 20260505152504 | 11 | 306 | 11.3 | 19.3 | 0.00 | 0.00 | 0.00 | 37 | 1010.0 |
| 20260505151004 | 11 | 313 | 19.3 | 29.0 | 0.00 | 0.00 | 0.00 | 35 | 1009.0 |
| 20260505150505 | 11 | 307 | 16.1 | 29.0 | 0.00 | 0.00 | 0.00 | 36 | 1009.0 |
| 20260505140505 | 11 | 313 | 14.5 | 29.0 | 0.00 | 0.00 | 0.00 | 42 | 1010.0 |
| 20260505125005 | 12 | 310 | 14.5 | 29.0 | 0.00 | 0.00 | 0.00 | 41 | 1010.0 |
| 20260505124504 | 12 | 296 | 11.3 | 24.1 | 0.00 | 0.00 | 0.00 | 42 | 1010.0 |
| 20260505124004 | 12 | 296 | 12.9 | 22.5 | 0.00 | 0.00 | 0.00 | 43 | 1010.0 |
| 20260505123504 | 12 | 311 | 12.9 | 22.5 | 0.00 | 0.00 | 0.00 | 44 | 1010.0 |
| 20260505122506 | 11 | 313 | 17.7 | 30.6 | 0.00 | 0.00 | 0.00 | 45 | 1009.0 |
| 20260505122005 | 11 | 305 | 16.1 | 30.6 | 0.00 | 0.00 | 0.00 | 44 | 1009.0 |
| 20260505120006 | 12 | 303 | 12.9 | 25.7 | 0.00 | 0.00 | 0.00 | 45 | 1010.0 |
| 20260505115505 | 12 | 308 | 14.5 | 27.4 | 0.00 | 0.00 | 0.00 | 45 | 1009.0 |
| 20260505114504 | 12 | 307 | 14.5 | 29.0 | 0.00 | 0.00 | 0.00 | 44 | 1009.0 |
| 20260505114005 | 12 | 290 | 12.9 | 24.1 | 0.00 | 0.00 | 0.00 | 45 | 1009.0 |
| 20260505113504 | 12 | 277 | 11.3 | 24.1 | 0.00 | 0.00 | 0.00 | 46 | 1009.0 |
| 20260505113005 | 12 | 292 | 9.7 | 17.7 | 0.00 | 0.00 | 0.00 | 45 | 1009.0 |
| 20260505112505 | 12 | 282 | 9.7 | 17.7 | 0.00 | 0.00 | 0.00 | 50 | 1009.0 |
| 20260505111505 | 12 | 268 | 8.0 | 17.7 | 0.00 | 0.00 | 0.00 | 48 | 1009.0 |